Location: Conflandey
(47.7287°N, 6.0456°E)
Time: 03:53:40
(UTC+00:00)

ARGOS - Pass Details

Date: 24 October 2021
Orbit: 820 x 835 km, 98.4° (Epoch: 05 December)

Event Time Altitude Azimuth Distance (km) Brightness Sun altitude
Rises 18:20:12 0° 177° (S) 3,357 6.3 -19.0°
Reaches altitude 10° 18:22:35 10° 181° (S) 2,430 5.6 -19.4°
Maximum altitude 18:27:52 56° 260° (W) 988 3.8 -20.3°
Drops below altitude 10° 18:33:14 10° 338° (NNW) 2,455 5.9 -21.2°
Sets 18:35:39 0° 343° (NNW) 3,395 6.6 -21.6°
